Location: Bremen
(53.0793°N, 8.8017°E)
Time: 02:09:37
(UTC+01:00)

deb Explorer IX - Pass Details

Date: 13 December 2021
Orbit: 544 x 1082 km, 38.8° (Epoch: 16 January)

Event Time Altitude Azimuth Distance (km) Brightness Sun altitude
Rises 07:17:27 0° 220° (SW) 3,602 ? -10.1°
Reaches altitude 10° 07:21:21 10° 199° (SSW) 2,541 ? -9.6°
Maximum altitude 07:24:35 15° 167° (SSE) 2,104 ? -9.1°
Drops below altitude 10° 07:27:36 10° 133° (SE) 2,332 ? -8.7°
Sets 07:30:56 0° 110° (ESE) 3,139 ? -8.3°
